CCA981 ZBAA-KJFK

Flight info

Callsign CCA981
Flight time N/A
Altitude 34100
Route IDKEX5Y IDKEX B339 POLHO/K0911S1010 Y327 VENID/K0906S1070 Y327 SULOK/K0906F350 N615 TEMGA/K0930F370 N615 TIGLA DCT 76N135E 80N144E 82N160E 84N180E DCT SULAD DCT 85N150W/N0499F370 85N141W 85N135W 85N130W/N0499F380 83N120W/N0497F370 80N106W/N0494F390 78N100W 75N093W 7330N09000W 70N086W/N0494F400 65N082W DCT RONPU/N0501F390 DCT 60N079W/N0500F400 DCT LEVAG DCT 55N077W DCT IMUNI DCT NOTUV DCT SEGUK/N0498F410 DCT 50N075W/N0499F400 DCT IKNAR Q903 TAMKO/N0498F410 Q903 DUNUP/N0499F400 DCT PBERG Q133 CAM DCT PONCT PUCKY1
Aircraft A359/H-SDE2E3GHIJ3J4J5LM1ORWXY/LB1D1

Departure

Time N/A
Airport Beijing Capital International Airport (ZBAA)

Arrival

Time 2026-05-08 03:25
Airport John F. Kennedy International Airport (KJFK)
Time Latitude Longitude Altitude Speed Heading
2026-05-08 02:34 44.26576 -73.47220 38868 ft 474 kts 182°
2026-05-08 02:35 44.20000 -73.46459 38869 ft 474 kts 182°
2026-05-08 02:35 44.13424 -73.45702 38854 ft 473 kts 182°
2026-05-08 02:36 44.06866 -73.44952 38869 ft 471 kts 182°
2026-05-08 02:36 44.00320 -73.44214 38879 ft 471 kts 184°
2026-05-08 02:37 43.93931 -73.44667 38875 ft 457 kts 197°
2026-05-08 02:37 43.87740 -73.46499 38879 ft 454 kts 199°
2026-05-08 02:38 43.81578 -73.48429 38877 ft 454 kts 199°
2026-05-08 02:38 43.76893 -73.49899 38871 ft 454 kts 199°
2026-05-08 02:39 43.70888 -73.51775 38884 ft 453 kts 200°
2026-05-08 02:39 43.64750 -73.53692 38887 ft 452 kts 200°
2026-05-08 02:40 43.58606 -73.55604 38890 ft 453 kts 199°
2026-05-08 02:40 43.52452 -73.57518 38891 ft 454 kts 199°
2026-05-08 02:41 43.46289 -73.59426 38895 ft 453 kts 199°
2026-05-08 02:41 43.41177 -73.61004 38879 ft 452 kts 200°
2026-05-08 02:42 43.34009 -73.63217 38897 ft 451 kts 200°
2026-05-08 02:42 43.27886 -73.65104 38898 ft 451 kts 200°
2026-05-08 02:43 43.21756 -73.66984 38888 ft 453 kts 200°
2026-05-08 02:43 43.15651 -73.68857 38896 ft 451 kts 200°
2026-05-08 02:44 43.09517 -73.70739 38897 ft 451 kts 200°
2026-05-08 02:44 43.03398 -73.72606 38887 ft 449 kts 200°
2026-05-08 02:45 42.97283 -73.74474 38895 ft 450 kts 200°
2026-05-08 02:45 42.91150 -73.76337 38896 ft 451 kts 200°
2026-05-08 02:46 42.85021 -73.78200 38893 ft 450 kts 200°
2026-05-08 02:46 42.78910 -73.80054 38913 ft 449 kts 200°
2026-05-08 02:47 42.72739 -73.81345 38918 ft 461 kts 190°
2026-05-08 02:47 42.66299 -73.81402 38899 ft 464 kts 189°
2026-05-08 02:48 42.59843 -73.81403 38912 ft 463 kts 189°
2026-05-08 02:48 42.53405 -73.81421 38909 ft 462 kts 189°
2026-05-08 02:49 42.46976 -73.81443 38867 ft 462 kts 189°
2026-05-08 02:49 42.40554 -73.81466 38897 ft 459 kts 189°
2026-05-08 02:50 42.34166 -73.81490 38895 ft 459 kts 189°
2026-05-08 02:50 42.27776 -73.81516 38889 ft 459 kts 189°
2026-05-08 02:51 42.24582 -73.81530 38745 ft 459 kts 190°
2026-05-08 02:51 42.21400 -73.81544 38518 ft 457 kts 190°
2026-05-08 02:51 42.18216 -73.81554 38251 ft 456 kts 190°
2026-05-08 02:51 42.15044 -73.81565 37980 ft 455 kts 190°
2026-05-08 02:52 42.12023 -73.81576 37732 ft 455 kts 190°
2026-05-08 02:52 42.08905 -73.81589 37466 ft 455 kts 190°
2026-05-08 02:52 42.05705 -73.81655 37156 ft 450 kts 193°
2026-05-08 02:52 42.02709 -73.82125 36899 ft 440 kts 200°
2026-05-08 02:53 41.99755 -73.83197 36649 ft 430 kts 208°
2026-05-08 02:53 41.97048 -73.84791 36402 ft 422 kts 215°
2026-05-08 02:53 41.94472 -73.86671 36153 ft 420 kts 216°
2026-05-08 02:53 41.91919 -73.88583 35910 ft 420 kts 216°
2026-05-08 02:54 41.89363 -73.90490 35671 ft 420 kts 216°
2026-05-08 02:54 41.86799 -73.92396 35376 ft 421 kts 216°
2026-05-08 02:54 41.84230 -73.94302 35137 ft 423 kts 216°
2026-05-08 02:54 41.81654 -73.96209 34906 ft 422 kts 216°
2026-05-08 02:55 41.79085 -73.98103 34675 ft 421 kts 216°
2026-05-08 02:55 41.73950 -74.01752 34035 ft 415 kts 212°
2026-05-08 02:55 41.71217 -74.03054 33535 ft 419 kts 204°
2026-05-08 02:56 41.69327 -74.03584 33204 ft 422 kts 198°
2026-05-08 02:56 41.65437 -74.04233 32598 ft 418 kts 197°
2026-05-08 02:56 41.62564 -74.04654 32145 ft 414 kts 197°
2026-05-08 02:56 41.59722 -74.05078 31679 ft 408 kts 197°
2026-05-08 02:57 41.56917 -74.05503 31244 ft 403 kts 197°
2026-05-08 02:57 41.54186 -74.05921 30812 ft 398 kts 198°
2026-05-08 02:57 41.51448 -74.06342 30371 ft 393 kts 198°
2026-05-08 02:57 41.48750 -74.06757 29917 ft 387 kts 198°
2026-05-08 02:58 41.46092 -74.07166 29459 ft 381 kts 198°
2026-05-08 02:58 41.43484 -74.07563 29052 ft 374 kts 198°
2026-05-08 02:58 41.40911 -74.07957 28645 ft 368 kts 198°
2026-05-08 02:58 41.38386 -74.08364 28245 ft 361 kts 200°
2026-05-08 02:59 41.35984 -74.09102 27853 ft 348 kts 209°
2026-05-08 02:59 41.33821 -74.10400 27488 ft 335 kts 219°
2026-05-08 02:59 41.31883 -74.11997 27126 ft 330 kts 220°
2026-05-08 02:59 41.29965 -74.13651 26703 ft 328 kts 220°
2026-05-08 03:00 41.28060 -74.15292 26381 ft 326 kts 220°
2026-05-08 03:00 41.26153 -74.16926 26034 ft 325 kts 220°
2026-05-08 03:00 41.24254 -74.18552 25673 ft 323 kts 220°
2026-05-08 03:00 41.22367 -74.20163 25315 ft 322 kts 220°
2026-05-08 03:01 41.20491 -74.21762 24952 ft 320 kts 220°
2026-05-08 03:01 41.18619 -74.23354 24592 ft 319 kts 220°
2026-05-08 03:01 41.16758 -74.24940 24227 ft 316 kts 220°
2026-05-08 03:01 41.14918 -74.26506 23860 ft 313 kts 220°
2026-05-08 03:02 41.13083 -74.28064 23505 ft 312 kts 220°
2026-05-08 03:02 41.11262 -74.29608 23043 ft 309 kts 220°
2026-05-08 03:02 41.09446 -74.31149 22716 ft 310 kts 219°
2026-05-08 03:02 41.07622 -74.32677 22351 ft 310 kts 218°
2026-05-08 03:03 41.05660 -74.33922 21979 ft 317 kts 208°
2026-05-08 03:03 41.03466 -74.34539 21600 ft 331 kts 195°
2026-05-08 03:03 41.01120 -74.34361 21202 ft 347 kts 180°
2026-05-08 03:03 40.98786 -74.33278 20773 ft 366 kts 164°
2026-05-08 03:04 40.96684 -74.31228 20422 ft 385 kts 145°
2026-05-08 03:04 40.95100 -74.28338 20269 ft 393 kts 126°
2026-05-08 03:04 40.94238 -74.24902 20140 ft 399 kts 106°
2026-05-08 03:04 40.93928 -74.21275 19992 ft 390 kts 104°
2026-05-08 03:05 40.93294 -74.17884 19717 ft 371 kts 122°
2026-05-08 03:05 40.92099 -74.14940 19295 ft 359 kts 133°
2026-05-08 03:05 40.91209 -74.13103 19058 ft 358 kts 134°
2026-05-08 03:05 40.89376 -74.09406 18897 ft 362 kts 134°
2026-05-08 03:06 40.88006 -74.06611 18890 ft 362 kts 133°
2026-05-08 03:06 40.86648 -74.03829 18852 ft 360 kts 133°
2026-05-08 03:06 40.85289 -74.01049 18893 ft 361 kts 133°
2026-05-08 03:06 40.83923 -73.98260 18884 ft 360 kts 133°
2026-05-08 03:07 40.82574 -73.95499 18888 ft 354 kts 133°
2026-05-08 03:07 40.81258 -73.92800 18884 ft 347 kts 134°
2026-05-08 03:07 40.79947 -73.90127 18888 ft 347 kts 134°
2026-05-08 03:07 40.78639 -73.87460 18887 ft 346 kts 134°
2026-05-08 03:08 40.77173 -73.85024 18887 ft 328 kts 150°
2026-05-08 03:08 40.75319 -73.83538 18895 ft 301 kts 172°
2026-05-08 03:08 40.73394 -73.82727 18675 ft 291 kts 176°
2026-05-08 03:08 40.71438 -73.82035 18252 ft 291 kts 177°
2026-05-08 03:09 40.69483 -73.81374 17806 ft 290 kts 177°
2026-05-08 03:09 40.67526 -73.80726 17301 ft 290 kts 177°
2026-05-08 03:09 40.65673 -73.80123 16806 ft 292 kts 177°
2026-05-08 03:09 40.63775 -73.79524 16336 ft 293 kts 177°
2026-05-08 03:10 40.61789 -73.78912 15850 ft 294 kts 177°
2026-05-08 03:10 40.59798 -73.78307 15420 ft 294 kts 177°
2026-05-08 03:10 40.57809 -73.77706 14977 ft 292 kts 177°
2026-05-08 03:10 40.55818 -73.77114 14505 ft 295 kts 177°
2026-05-08 03:11 40.53813 -73.76535 14123 ft 295 kts 177°
2026-05-08 03:11 40.51816 -73.75964 13737 ft 292 kts 177°
2026-05-08 03:11 40.49820 -73.75406 13232 ft 294 kts 177°
2026-05-08 03:11 40.47855 -73.74579 12736 ft 305 kts 159°
2026-05-08 03:12 40.46199 -73.72762 12251 ft 319 kts 133°
2026-05-08 03:12 40.45060 -73.70227 11928 ft 323 kts 119°
2026-05-08 03:12 40.44328 -73.67471 11599 ft 319 kts 102°
2026-05-08 03:12 40.44325 -73.64572 11158 ft 319 kts 75°
2026-05-08 03:13 40.45287 -73.62057 10854 ft 301 kts 43°
2026-05-08 03:13 40.46920 -73.60464 10465 ft 289 kts 22°
2026-05-08 03:13 40.48687 -73.59309 10111 ft 285 kts 20°
2026-05-08 03:13 40.50467 -73.58177 9987 ft 284 kts 20°
2026-05-08 03:14 40.52231 -73.57039 9858 ft 282 kts 21°
2026-05-08 03:14 40.53985 -73.55891 9720 ft 281 kts 21°
2026-05-08 03:14 40.55733 -73.54736 9455 ft 280 kts 21°
2026-05-08 03:14 40.57470 -73.53585 9168 ft 279 kts 21°
2026-05-08 03:15 40.59199 -73.52432 8875 ft 278 kts 22°
2026-05-08 03:15 40.60916 -73.51287 8578 ft 275 kts 22°
2026-05-08 03:15 40.62617 -73.50151 8288 ft 274 kts 22°
2026-05-08 03:15 40.63745 -73.49397 8100 ft 274 kts 22°
2026-05-08 03:16 40.65436 -73.48268 7877 ft 268 kts 22°
2026-05-08 03:16 40.67067 -73.47173 7652 ft 260 kts 22°
2026-05-08 03:16 40.68657 -73.46105 7306 ft 255 kts 22°
2026-05-08 03:16 40.70242 -73.45069 6984 ft 253 kts 21°
2026-05-08 03:17 40.71821 -73.44083 6711 ft 251 kts 21°
2026-05-08 03:17 40.73924 -73.42860 6351 ft 245 kts 14°
2026-05-08 03:17 40.75036 -73.42574 6182 ft 239 kts 358°
2026-05-08 03:17 40.77069 -73.43137 5941 ft 219 kts 329°
2026-05-08 03:18 40.77902 -73.43888 5743 ft 213 kts 315°
2026-05-08 03:18 40.78832 -73.45392 5422 ft 211 kts 300°
2026-05-08 03:18 40.79581 -73.47005 5123 ft 208 kts 298°
2026-05-08 03:18 40.80320 -73.48646 4790 ft 208 kts 299°
2026-05-08 03:19 40.81062 -73.50289 4485 ft 207 kts 299°
2026-05-08 03:19 40.81733 -73.51940 4177 ft 202 kts 292°
2026-05-08 03:19 40.82034 -73.53722 3974 ft 201 kts 273°
2026-05-08 03:19 40.81855 -73.55554 3638 ft 203 kts 255°
2026-05-08 03:20 40.81410 -73.57341 3258 ft 205 kts 252°
2026-05-08 03:20 40.80923 -73.59112 3086 ft 205 kts 252°
2026-05-08 03:20 40.80442 -73.60885 2981 ft 206 kts 252°
2026-05-08 03:20 40.79908 -73.62651 2962 ft 210 kts 241°
2026-05-08 03:21 40.78980 -73.64137 2970 ft 207 kts 220°
2026-05-08 03:21 40.77810 -73.65105 2978 ft 194 kts 208°
2026-05-08 03:21 40.76644 -73.65952 2834 ft 193 kts 211°
2026-05-08 03:21 40.75513 -73.66859 2565 ft 187 kts 212°
2026-05-08 03:22 40.74409 -73.67731 2311 ft 183 kts 211°
2026-05-08 03:22 40.73329 -73.68577 2055 ft 178 kts 211°
2026-05-08 03:22 40.72286 -73.69398 1818 ft 171 kts 211°
2026-05-08 03:22 40.71292 -73.70178 1588 ft 161 kts 211°
2026-05-08 03:23 40.70357 -73.70911 1371 ft 151 kts 211°
2026-05-08 03:23 40.69479 -73.71600 1166 ft 142 kts 211°
2026-05-08 03:23 40.68634 -73.72264 993 ft 141 kts 211°
2026-05-08 03:23 40.67797 -73.72924 797 ft 140 kts 211°
2026-05-08 03:24 40.66971 -73.73582 626 ft 137 kts 211°
2026-05-08 03:24 40.66156 -73.74212 417 ft 134 kts 208°
2026-05-08 03:24 40.65353 -73.74831 257 ft 133 kts 212°
2026-05-08 03:24 40.64555 -73.75460 93 ft 134 kts 211°
2026-05-08 03:25 40.63783 -73.76067 32 ft 117 kts 210°
2026-05-08 03:25 40.63309 -73.76438 28 ft 41 kts 211°
2026-05-08 03:25 40.63148 -73.76563 26 ft 25 kts 211°
2026-05-08 03:25 40.63015 -73.76714 27 ft 24 kts 229°
2026-05-08 03:26 40.62941 -73.76872 27 ft 15 kts 243°
2026-05-08 03:26 40.62943 -73.76996 28 ft 14 kts 297°
2026-05-08 03:26 40.62987 -73.77097 29 ft 11 kts 301°
2026-05-08 03:26 40.63026 -73.77183 32 ft 11 kts 301°
2026-05-08 03:27 40.63067 -73.77274 33 ft 13 kts 301°
2026-05-08 03:27 40.63117 -73.77383 34 ft 15 kts 301°
2026-05-08 03:27 40.63172 -73.77505 36 ft 16 kts 301°
2026-05-08 03:27 40.63233 -73.77639 34 ft 17 kts 301°
2026-05-08 03:28 40.63293 -73.77772 34 ft 17 kts 301°
2026-05-08 03:28 40.63338 -73.77872 31 ft 12 kts 300°
2026-05-08 03:28 40.63388 -73.77986 30 ft 17 kts 299°
2026-05-08 03:28 40.63448 -73.78124 31 ft 17 kts 300°
2026-05-08 03:29 40.63506 -73.78252 31 ft 15 kts 301°
2026-05-08 03:29 40.63562 -73.78376 34 ft 16 kts 301°
2026-05-08 03:29 40.63615 -73.78493 35 ft 15 kts 301°
2026-05-08 03:29 40.63674 -73.78624 35 ft 18 kts 301°
2026-05-08 03:30 40.63786 -73.78870 32 ft 15 kts 301°
2026-05-08 03:30 40.63867 -73.79049 29 ft 15 kts 301°
2026-05-08 03:31 40.63985 -73.79310 27 ft 13 kts 301°
2026-05-08 03:31 40.64068 -73.79477 28 ft 11 kts 317°
2026-05-08 03:32 40.64127 -73.79507 29 ft 6 kts 357°
2026-05-08 03:32 40.64173 -73.79505 31 ft 7 kts
2026-05-08 03:32 40.64215 -73.79458 31 ft 9 kts 63°
2026-05-08 03:32 40.64243 -73.79400 31 ft 8 kts 51°
2026-05-08 03:33 40.64279 -73.79349 31 ft 8 kts 47°
2026-05-08 03:33 40.64300 -73.79280 31 ft 8 kts 94°
2026-05-08 03:33 40.64289 -73.79226 31 ft 5 kts 105°
2026-05-08 03:33 40.64283 -73.79196 31 ft 0 kts 105°